This is the latest recevied weather packets stored in our database for station/object KB2M. If no packets are shown the sender has not sent any weather packets the latest 10 day(s).
| Time | Temp. | Humidity | Pressure | Rain* | Wind** | Luminosity | Snow |
|---|---|---|---|---|---|---|---|
| 1788112293 | 29.44° C | 74% | 1020.3 hPa | 0 mm | - | - | - |
| 1788111693 | 28.89° C | 74% | 1020.3 hPa | 0 mm | - | - | - |
| 1788111093 | 28.89° C | 75% | 1020.6 hPa | 0 mm | - | - | - |
| 1788110493 | 28.89° C | 75% | 1020.6 hPa | 0 mm | - | - | - |
| 1788109893 | 28.89° C | 75% | 1020.9 hPa | 0 mm | - | - | - |
| 1788109263 | 28.89° C | 75% | 1020.9 hPa | 0 mm | - | - | - |
| 1788108633 | 29.44° C | 75% | 1020.9 hPa | 0 mm | - | - | - |
| 1788108033 | 29.44° C | 74% | 1020.9 hPa | 0 mm | - | - | - |
| 1788107403 | 28.89° C | 77% | 1020.6 hPa | 0 mm | - | - | - |
| 1788106773 | 28.89° C | 77% | 1020.6 hPa | 0 mm | - | - | - |
| 1788106143 | 28.89° C | 78% | 1020.9 hPa | 0 mm | - | - | - |
| 1788105543 | 28.33° C | 78% | 1020.6 hPa | 0 mm | - | - | - |
| 1788104913 | 28.33° C | 79% | 1020.6 hPa | 0 mm | - | - | - |
| 1788104283 | 28.33° C | 78% | 1020.9 hPa | 0 mm | - | - | - |
| 1788103683 | 28.33° C | 79% | 1020.6 hPa | 0 mm | - | - | - |
| 1788103053 | 28.33° C | 80% | 1020.9 hPa | 0 mm | - | - | - |
| 1788102423 | 27.78° C | 81% | 1020.9 hPa | 0 mm | - | - | - |
| 1788101823 | 27.78° C | 81% | 1020.9 hPa | 0 mm | - | - | - |
| 1788101193 | 27.78° C | 82% | 1020.9 hPa | 0 mm | - | - | - |
| 1788100593 | 27.78° C | 83% | 1020.9 hPa | 0 mm | - | - | - |
| 1788099963 | 28.33° C | 80% | 1021.3 hPa | 0 mm | - | - | - |
| 1788099333 | 28.33° C | 79% | 1020.9 hPa | 0 mm | - | - | - |
| 1788098733 | 28.89° C | 78% | 1020.9 hPa | 0 mm | - | - | - |
| 1788098133 | 28.89° C | 79% | 1020.9 hPa | 0 mm | - | - | - |
| 1788097503 | 28.33° C | 79% | 1020.9 hPa | 0 mm | - | - | - |
* Rain latest hour (hover to see other rain measurements)
** Current wind speed in m/s (hover to see current wind gust speed)